Regional Weather Roundup
Issued by NWS Green Bay, WI

Home | Current Version | Previous Version | Graphics & Text | Print | Product List | Glossary Off
Versions: 1 2 3 4 5 6 7 8 9 10 11 12 13 14 15 16 17 18 19 20 21 22 23 24 25 26 27 28 29 30 31 32 33 34 35 36 37 38 39 40 41 42 43 44 45 46 47 48 49 50

000
ASUS43 KGRB 241510
RWRGRB

NORTH-CENTRAL AND NORTHEAST WISCONSIN REGIONAL WEATHER ROUNDUP
NATIONAL WEATHER SERVICE GREEN BAY WI
1000 AM CDT THU JUL 24 2014

WIZ005-009-010>012-018-019-241600-
NORTH CENTRAL WISCONSIN

CITY           SKY/WX    TMP DP  RH WIND       PRES   REMARKS
IRONWOOD       SUNNY     66  54  63 CALM      30.13S
MANITOWISH WTR SUNNY     65  50  57 CALM      30.17F
ARBOR VITAE    SUNNY     72  58  62 CALM      30.17S
EAGLE RIVER    SUNNY     65  50  58 W5        30.17F
LAND O LAKES   SUNNY     67  51  56 CALM      30.18F
RHINELANDER      N/A    N/A N/A N/A MISG      30.18F
PHILLIPS       SUNNY     68  55  62 S3        30.16F
ANTIGO         SUNNY     65  53  64 SW5       30.19F
TOMAHAWK       SUNNY     67  55  65 CALM      30.18F
MERRILL        SUNNY     67  54  64 CALM      30.18S
$$

WIZ013-073-241600-
NORTHEAST WISCONSIN

CITY           SKY/WX    TMP DP  RH WIND       PRES   REMARKS
IRON MOUNTAIN  SUNNY     68  51  54 NW6       30.16F
MARINETTE      SUNNY     66  46  48 CALM      30.17F
OCONTO         SUNNY     68  49  51 CALM      30.17S
$$

WIZ017-030-035>037-045-241600-
CENTRAL WISCONSIN

CITY           SKY/WX    TMP DP  RH WIND       PRES   REMARKS
MEDFORD        SUNNY     65  57  75 CALM      30.17F
WAUSAU         SUNNY     67  51  56 S6        30.16F
MOSINEE        SUNNY     68  52  56 S5        30.19S
MARSHFIELD     SUNNY     68  54  60 S5        30.17F
WISC RAPIDS    SUNNY     70  48  45 SW7       30.18F
STEVENS POINT  SUNNY     67  46  47 S7        30.18F
WAUPACA        SUNNY     71  46  41 SE5       30.18F
SHAWANO        SUNNY     69  49  49 CALM      30.18F
CLINTONVILLE   SUNNY     68  46  45 CALM      30.18F
$$

WIZ038-039-048-051-241600-
FOX VALLEY

CITY           SKY/WX    TMP DP  RH WIND       PRES   REMARKS
NWS GREEN BAY  SUNNY     70  43  37 CALM      30.18F
APPLETON       SUNNY     66  48  52 CALM      30.19F
OSHKOSH        SUNNY     67  53  61 E5        30.18F
FOND DU LAC    SUNNY     69  48  47 NE3       30.18F
$$

WIZ022-050-052-241600-
EAST CENTRAL WISCONSIN

CITY           SKY/WX    TMP DP  RH WIND       PRES   REMARKS
STURGEON BAY   SUNNY     64  48  55 NW5       30.19F
MANITOWOC      SUNNY     67  46  47 VRB3      30.19F
SHEBOYGAN      SUNNY     66  49  54 E7        30.19F
$$

LMZ563-521-522-541>543-241600-
LAKESHORE

STATION/POSITION TIME  TEMP    WIND        PRES    VSBY  WAVE
                       AIR SEA DIR/SP/G                  HT/PER
                 (UTC) (F)     (DEG/KT/KT) (MB)    (MI)  (FT/S)
SHEBOYGAN LKSHOR 1500   57      30/  6/  6 1022.6F
KEWAUNEE LKSHORE 1500   58     110/  2/  4 1022.9F
TWO RIVERS CG    1500   61                   N/A       6   0
NORTHPORT PIER   1500   63     330/  8/  9 1021.7S
N MID LAKE BUOY  1500   57 53  260/  2/  2 1021.5F         0
CHAMBERS ISLAND  1500   67     280/  2/  6 1022.0F
MENOMINEE LKSHOR 1500   65      30/  3/  4 1022.4S
$$



USA.gov is the U.S. government's official web portal to all federal, state and local government web resources and services.